Change the Weather History Date:

Friday, March 22, 2013

  Actual Average Record
Temperature  
Mean Temperature 72 °F -  
Max Temperature 80 °F 81 °F - ()
Min Temperature 64 °F 65 °F - ()
Cooling Degree Days 7    
Growing Degree Days 22 (Base 50)    
Moisture  
Dew Point 62 °F    
Average Humidity 69    
Maximum Humidity 83    
Minimum Humidity 45    
Precipitation  
Precipitation 0.00 in 0.07 in - ()
Sea Level Pressure  
Sea Level Pressure 29.99 in    
Wind  
Wind Speed 2 mph ()    
Max Wind Speed 8 mph    
Max Gust Speed -    
Visibility 6.9 miles    
Events      
T = Trace of Precipitation, MM = Missing Value Source: Averaged Metar Reports

Daily Weather History Graph

Daily Weather History Graph

Search for Another Location

Airport or City:

Trip Planner

Search our weather history database for the weather conditions in past years. The results will help you decide how hot, cold, wet, or windy it might be!

Date:

Astronomy

Mar. 22, 2013 Rise Set
Actual Time 7:11 AM EDT 7:22 PM EDT
Civil Twilight 6:48 AM EDT 7:44 PM EDT
Nautical Twilight 6:22 AM EDT 8:11 PM EDT
Astronomical Twilight 5:55 AM EDT 8:38 PM EDT
Moon 3:11 PM EDT (3/22) 3:44 AM EDT (3/22)
Length of Visible Light 12h 56m
Length of Day
12h 10m
Waxing Gibbous, 77% of the Moon is Illuminated
Mar 22
Waxing Gibbous
Mar 27
Full
Apr 3
Last Quarter
Apr 10
New
Apr 18
First Quarter

Hourly Weather History & Observations

Time (EDT) Temp. Dew Point Humidity Pressure Visibility Wind Dir Wind Speed Gust Speed Precip Events Conditions
12:00 AM 69.8 °F 59.0 °F 68% 29.96 in 6.2 mi Calm Calm - N/A   Partly Cloudy
1:00 AM 69.8 °F 60.8 °F 73% 29.95 in 6.2 mi Calm Calm - N/A   Partly Cloudy
2:00 AM 67 °F 59 °F 69% 29.94 in 9 mi Calm Calm - -   Scattered Clouds
2:00 AM 68.0 °F 59.0 °F 73% 29.94 in 6.2 mi Calm Calm - N/A   Partly Cloudy
3:00 AM 68.0 °F 59.0 °F 73% 29.94 in 6.2 mi Calm Calm - N/A   Partly Cloudy
4:00 AM 66.2 °F 59.0 °F 78% 29.94 in 6.2 mi Calm Calm - N/A   Partly Cloudy
5:00 AM 65 °F 60 °F 78% 29.95 in 9 mi Calm Calm - -   Scattered Clouds
5:00 AM 64.4 °F 59.0 °F 83% 29.94 in - Calm Calm - N/A   Partly Cloudy
6:00 AM 66.2 °F 60.8 °F 83% 29.96 in - Calm Calm - N/A   Partly Cloudy
7:00 AM 66.2 °F 60.8 °F 83% 29.97 in - Calm Calm - N/A   Partly Cloudy
8:00 AM 72 °F 59 °F 54% 30.00 in 9 mi Calm Calm - -   Scattered Clouds
8:00 AM 71.6 °F 60.8 °F 69% 30.01 in - ENE 3.5 mph - N/A   Mostly Cloudy
9:00 AM 71.6 °F 60.8 °F 69% 30.01 in - ENE 3.5 mph - N/A   Mostly Cloudy
10:00 AM 73.4 °F 60.8 °F 65% 30.03 in - ENE 4.6 mph - N/A   Mostly Cloudy
11:00 AM 75 °F 60 °F 50% 30.04 in 8 mi ENE 6.9 mph - -   Mostly Cloudy
11:00 AM 75.2 °F 60.8 °F 61% 30.04 in 6.2 mi ENE 6.9 mph - N/A   Mostly Cloudy
12:00 PM 75.2 °F 62.6 °F 65% 30.05 in 6.2 mi ENE 6.9 mph - N/A   Mostly Cloudy
1:00 PM 75.2 °F 62.6 °F 65% 30.04 in 6.2 mi East 4.6 mph - N/A   Mostly Cloudy
2:00 PM 79 °F 62 °F 45%  in 7 mi East 6.9 mph - -   Partly Cloudy
2:00 PM 78.8 °F 60.8 °F 54% 30.01 in 6.2 mi East 6.9 mph - N/A   Scattered Clouds
3:00 PM 75.2 °F 64.4 °F 69% 30.01 in 6.2 mi SE 8.1 mph - N/A   Scattered Clouds
4:00 PM 77.0 °F 64.4 °F 65% 29.98 in 6.2 mi SE 8.1 mph - N/A   Scattered Clouds
5:00 PM 78 °F 64 °F 52% 29.97 in 8 mi ESE 5.8 mph - -   Partly Cloudy
5:00 PM 77.0 °F 64.4 °F 65% 29.96 in 6.2 mi ESE 5.8 mph - N/A   Scattered Clouds
6:00 PM 75.2 °F 66.2 °F 73% 29.98 in 6.2 mi ESE 5.8 mph - N/A   Partly Cloudy
7:00 PM 75.2 °F 64.4 °F 69% 29.99 in 6.2 mi SE 5.8 mph - N/A   Partly Cloudy
8:00 PM 74 °F 65 °F 66% 30.01 in 8 mi ESE 5.8 mph - -   Scattered Clouds
8:00 PM 75.2 °F 64.4 °F 69% 30.00 in 6.2 mi ESE 5.8 mph - N/A   Partly Cloudy
9:00 PM 73.4 °F 66.2 °F 78% 30.02 in 6.2 mi ESE 3.5 mph - N/A   Scattered Clouds
10:00 PM 73.4 °F 68.0 °F 83% 30.03 in 6.2 mi SE 4.6 mph - N/A   Partly Cloudy
11:00 PM 74 °F 69 °F 78% 30.05 in 9 mi SE 4.6 mph - -   Partly Cloudy
11:00 PM 75.2 °F 68.0 °F 78% 30.04 in 6.2 mi SE 4.6 mph - N/A   Partly Cloudy